MUOS-2

Last updated on Fri Dec 19 2025 00:02:50 GMT+0000 (Coordinated Universal Time)

1 39206U 13036A 25352.56206066 .00000009 00000+0 00000+0 0 9998 2 39206 4.6366 45.1169 0054731 179.8243 236.8802 1.00269820 45384
UTC large
Height (km)
Speed (km/s)
/
Latitude / Longitude
Inclination (degrees)
Orbital Period (minutes)
Azimuth
Elevation
Range (km)
Doppler Factor

Next 0 passes for location: London (51.5072 / 0.1276)

Sorry there are no passes over London.